Yakima, WA

7:15 AM PDT on June 25, 2018 (GMT -0700)
Yakima Air Term-McAllister

Weather History for KYKM - November, 2017

Change the Weather History Date:

Wednesday, November 15, 2017

  Actual Average Record
Temperature  
Mean Temperature 45 °F 38 °F  
Max Temperature 53 °F 48 °F 65 °F (1998)
Min Temperature 37 °F 27 °F -3 °F (1955)
Degree Days  
Heating Degree Days 20 27  
Month to date heating degree days 351 372  
Since 1 July heating degree days 912 1076  
Cooling Degree Days 0 0  
Month to date cooling degree days 0 0  
Year to date cooling degree days 1054 472  
Moisture  
Dew Point 36 °F    
Average Humidity 66    
Maximum Humidity 82    
Minimum Humidity 50    
Precipitation  
Precipitation 0.03 in 0.03 in 0.31 in (1981)
Month to date precipitation 0.73 0.47  
Year to date precipitation 9.47 6.14  
Snow  
Snow 0.00 in 0.10 in 0.40 in (1959)
Month to date snowfall 0.4 0.8  
Year to date snowfall 29.5 9.5  
Since 1 July snowfall 0.4 0.9  
Snow Depth 0.00 in    
Sea Level Pressure  
Sea Level Pressure 29.68 in    
Wind  
Wind Speed 5 mph (SW)    
Max Wind Speed 17 mph    
Max Gust Speed 22 mph    
Visibility 10 miles    
Events Rain    
T = Trace of Precipitation, MM = Missing Value Source: NWS Daily Summary

Daily Weather History Graph

Daily Weather History Graph

Search for Another Location

Airport or City:

Astronomy

Nov. 15, 2017 Rise Set
Actual Time 7:04 AM PST 4:28 PM PST
Civil Twilight 6:31 AM PST 5:01 PM PST
Nautical Twilight 5:55 AM PST 5:37 PM PST
Astronomical Twilight 5:19 AM PST 6:13 PM PST
Moon 3:56 AM PST (11/15) 3:38 PM PST (11/15)
Length of Visible Light 10h 29m
Length of Day
9h 23m
Waning Crescent, 7% of the Moon is Illuminated
Nov 15
Waning Crescent
Nov 18
New
Nov 26
First Quarter
Dec 3
Full
Dec 9
Last Quarter

Hourly Weather History & Observations

Time (PST) Temp. Windchill Dew Point Humidity Pressure Visibility Wind Dir Wind Speed Gust Speed Precip Events Conditions
12:53 AM 37.9 °F - 32.0 °F 79% 29.88 in 10.0 mi Calm Calm - N/A   Scattered Clouds
1:53 AM 39.0 °F 35.7 °F 32.0 °F 76% 29.85 in 10.0 mi SSW 4.6 mph - N/A   Partly Cloudy
2:53 AM 44.1 °F 41.5 °F 32.0 °F 63% 29.83 in 10.0 mi ENE 4.6 mph - N/A   Mostly Cloudy
3:53 AM 42.1 °F - 32.0 °F 67% 29.80 in 10.0 mi Calm Calm - N/A   Mostly Cloudy
4:53 AM 44.1 °F - 30.9 °F 60% 29.78 in 10.0 mi Calm Calm - N/A   Mostly Cloudy
5:53 AM 37.9 °F 34.4 °F 30.9 °F 76% 29.76 in 10.0 mi West 4.6 mph - N/A   Clear
6:53 AM 43.0 °F 41.3 °F 30.9 °F 62% 29.75 in 10.0 mi NW 3.5 mph - N/A   Mostly Cloudy
7:53 AM 37.9 °F 31.5 °F 30.9 °F 76% 29.75 in 10.0 mi WNW 9.2 mph - N/A   Mostly Cloudy
8:53 AM 46.9 °F - 33.1 °F 59% 29.75 in 10.0 mi Calm Calm - N/A   Overcast
9:53 AM 50.0 °F - 33.1 °F 52% 29.73 in 10.0 mi South 3.5 mph - N/A   Mostly Cloudy
10:53 AM 51.1 °F - 33.1 °F 50% 29.72 in 10.0 mi SSW 5.8 mph - N/A   Mostly Cloudy
11:53 AM 52.0 °F - 37.9 °F 59% 29.69 in 10.0 mi SSW 6.9 mph - 0.00 in Rain Light Rain
12:53 PM 51.1 °F - 39.0 °F 63% 29.67 in 10.0 mi SW 5.8 mph - 0.00 in Rain Light Rain
1:53 PM 53.1 °F - 39.0 °F 59% 29.65 in 10.0 mi SSW 9.2 mph - 0.00 in   Overcast
2:53 PM 51.1 °F - 39.9 °F 66% 29.63 in 10.0 mi WNW 8.1 mph - N/A   Overcast
3:53 PM 50.0 °F - 39.9 °F 68% 29.61 in 10.0 mi NW 4.6 mph - 0.00 in   Overcast
4:53 PM 48.9 °F - 39.0 °F 69% 29.60 in 10.0 mi NNW 5.8 mph - N/A   Overcast
5:53 PM 48.0 °F - 37.9 °F 68% 29.60 in 10.0 mi West 4.6 mph - 0.00 in Rain Light Rain
6:53 PM 46.9 °F - 39.0 °F 74% 29.58 in 10.0 mi Calm Calm - 0.00 in   Overcast
7:53 PM 46.0 °F 43.1 °F 39.0 °F 76% 29.57 in 10.0 mi ESE 5.8 mph - 0.01 in Rain Light Rain
8:53 PM 46.0 °F 41.9 °F 39.0 °F 76% 29.53 in 10.0 mi South 8.1 mph - 0.01 in Rain Light Rain
9:53 PM 46.0 °F 43.1 °F 39.0 °F 76% 29.53 in 10.0 mi ENE 5.8 mph - 0.00 in Rain Light Rain
10:53 PM 44.1 °F 38.6 °F 41.0 °F 89% 29.52 in 10.0 mi SSE 10.4 mph - 0.00 in   Overcast
11:53 PM 44.1 °F 38.6 °F 39.0 °F 82% 29.53 in 10.0 mi SSE 10.4 mph - 0.01 in Rain Light Rain